カタログに戻る

NOAA 17 DEB

運用中PO
NORAD 48747·DEBRIS·🇺🇸 United States

打ち上げ Jun 24, 2002 から Vandenberg Space Force Base

Loading…

次のパス (今後24時間)

TLE

最新Source: Space-Track

元期: Sep 14, 2026, 04:49 UTC

1 48747U 02032CG  26257.20137402  .00029877  00000-0  24092-2 0  9990
2 48747  99.0303  35.1040 0017762  80.1923 280.1301 14.99718934290466

AllMySatでNOAA 17 DEBをリアルタイム追跡

Download on the App Store